Home > Weather > Wuhan > Past weeks

Flag for China Past Weather in Wuhan, Hubei, China — Yesterday and Last 2 Weeks

Now
100 °F

Passing clouds.


Feels Like: 127 °F
Forecast: 85 / 97 °F
Wind: 6 mph from Northwest

Location: Wuhan Airport

Current Time: Jul 31, 2016 at 3:26:03 PM

Latest Report: Jul 31, 2016 at 3:00 PM


Visibility: N/A

Pressure: 29.65 "Hg

Humidity: 57%

Dew Point: 82 °F

Location of WuhanLocation

Past Weather in Wuhan — Graph

°F

Wuhan Temperature Yesterday

Maximum temperature yesterday: 100 °F (at 1:00 PM)
Minimum temperature yesterday: 86 °F (at 5:00 AM)
Average temperature yesterday: 93 °F

High & Low Weather Summary for the Past Weeks

 TemperatureHumidityPressure
High100 °F (Jul 26, 3:00 PM)100% (Jul 17, 4:00 AM)29.74 "Hg (Jul 17, 4:00 AM)
Low79 °F (Jul 19, 5:00 AM)47% (Jul 30, 2:00 PM)29.45 "Hg (Jul 20, 1:00 AM)
Average89 °F76%29.65 "Hg
* Reported Jul 16 2:00 PM — Jul 31 2:00 PM, Wuhan, Weather by CustomWeather, © 2016

Note: Actual official high and low records may vary slightly from our data, if they occured in-between our weather recording intervals... More about our weather records

Advertising

Wuhan Weather History for the Previous 24 Hours

Scroll right to see more
 ConditionsComfort  
Time TempWeatherWind HumidityBarometerVisibility
2:00 PM
Sun, Jul 31
99 °FPassing clouds.3 mph57%29.68 "HgN/A
1:00 PM100 °FPassing clouds.3 mph50%29.71 "HgN/A
12:00 PM99 °FPassing clouds.6 mph57%29.74 "HgN/A
11:00 AM97 °FPassing clouds.8 mph63%29.74 "HgN/A
10:00 AM95 °FPassing clouds.8 mph67%29.74 "HgN/A
9:00 AM93 °FPassing clouds.6 mph71%29.74 "HgN/A
8:00 AM91 °FSunny.6 mph75%29.71 "Hg10 mi
7:00 AM86 °FSunny.6 mph89%29.71 "Hg10 mi
6:00 AM84 °FSunny.3 mph89%29.71 "Hg10 mi
5:00 AM84 °FClear.6 mph89%29.68 "Hg10 mi
4:00 AM86 °FClear.1 mph89%29.68 "Hg10 mi
3:00 AM86 °FClear.3 mph89%29.68 "Hg10 mi
2:00 AM90 °FClear.1 mph71%29.68 "Hg10 mi
1:00 AM88 °FClear.1 mph94%29.71 "Hg10 mi
12:00 AM88 °FClear.No wind79%29.71 "Hg10 mi
11:00 PM
Sat, Jul 30
90 °FPassing clouds.3 mph79%29.71 "HgN/A
10:00 PM90 °FClear.No wind79%29.71 "Hg10 mi
9:00 PM90 °FClear.1 mph79%29.71 "Hg10 mi
8:00 PM93 °FClear.1 mph67%29.68 "Hg10 mi
7:00 PM95 °FSunny.6 mph60%29.65 "Hg10 mi
6:00 PM99 °FSunny.6 mph50%29.65 "Hg10 mi
5:00 PM100 °FSunny.8 mph50%29.65 "Hg10 mi
4:00 PM100 °FSunny.6 mph47%29.68 "Hg10 mi
3:00 PM100 °FSunny.6 mph47%29.68 "Hg10 mi
Weather by CustomWeather, © 2016

See weather overviewHow to use our weather pages